ORBCOMM FM27

Last updated on Wed Sep 23 2026 00:03:43 GMT+0000 (Coordinated Universal Time)

1 25481U 98053G 26265.22945533 .00000564 00000+0 22549-3 0 9998 2 25481 45.0046 234.3763 0002648 315.8425 44.2212 14.39286007464219
UTC large
Height (km)
Speed (km/s)
/
Latitude / Longitude
Inclination (degrees)
Orbital Period (minutes)
Azimuth
Elevation
Range (km)
Doppler Factor

Next 0 passes for location: London (51.5072 / 0.1276)

No passes found over London.
ORBCOMM FM27